Weather History for Dubai International Airport, UAE

Change the Weather History Date:

Monday, June 3, 2013

  Actual Average Record
Temperature  
Mean Temperature 92 °F -  
Max Temperature 101 °F 101 °F - ()
Min Temperature 82 °F 80 °F - ()
Cooling Degree Days 26    
Growing Degree Days 42 (Base 50)    
Moisture  
Dew Point 46 °F    
Average Humidity 19    
Maximum Humidity 49    
Minimum Humidity 4    
Precipitation  
Precipitation 0.00 in 0.00 in - ()
Sea Level Pressure  
Sea Level Pressure 29.52 in    
Wind  
Wind Speed 6 mph ()    
Max Wind Speed 16 mph    
Max Gust Speed -    
Visibility 3.2 miles    
Events      
T = Trace of Precipitation, MM = Missing Value Source: Averaged Metar Reports

Daily Weather History Graph

Daily Weather History Graph

Search for Another Location

Airport:

Trip Planner

Search our weather history database for the weather conditions in past years. The results will help you decide how hot, cold, wet, or windy it might be!

Date:

Astronomy

Jun. 03, 2013 Rise Set
Actual Time 5:27 AM GST 7:05 PM GST
Civil Twilight 5:02 AM GST 7:31 PM GST
Nautical Twilight 4:31 AM GST 8:01 PM GST
Astronomical Twilight 3:59 AM GST 8:34 PM GST
Moon 1:45 AM GST (6/3) 2:36 PM GST (6/3)
Length of Visible Light 14h 28m
Length of Day
13h 37m
Waning Crescent, 25% of the Moon is Illuminated
Jun 3
Waning Crescent
Jun 8
New
Jun 16
First Quarter
Jun 23
Full
Jun 30
Last Quarter

Hourly Weather History & Observations

Time (GST) Temp. Heat Index Dew Point Humidity Pressure Visibility Wind Dir Wind Speed Gust Speed Precip Events Conditions
12:00 AM 89.6 °F - 44.6 °F 21% 29.50 in 3.7 mi Variable 2.3 mph - N/A   Unknown
1:00 AM 90 °F - 46 °F 13% 29.51 in 3 mi South 3.5 mph - -   Widespread Dust
1:00 AM 89.6 °F - 46.4 °F 22% 29.50 in 3.1 mi South 3.5 mph - N/A   Unknown
2:00 AM 87.8 °F - 50.0 °F 27% 29.50 in 3.1 mi SSW 3.5 mph - N/A   Unknown
3:00 AM 86.0 °F - 41.0 °F 20% 29.47 in 3.1 mi South 3.5 mph - N/A   Unknown
4:00 AM 85 °F - 42 °F 13% 29.51 in 3 mi East 3.5 mph - -   Widespread Dust
4:00 AM 86.0 °F - 41.0 °F 20% 29.50 in 3.1 mi East 3.5 mph - N/A   Unknown
5:00 AM 84.2 °F - 42.8 °F 23% 29.50 in 3.1 mi SE 6.9 mph - N/A   Unknown
5:22 AM 84.2 °F - 39.2 °F 20% 29.50 in 2.5 mi SSW 3.5 mph - N/A   Unknown
6:00 AM 84.2 °F - 39.2 °F 20% 29.50 in 2.5 mi SSW 3.5 mph - N/A   Unknown
7:00 AM 85 °F - 44 °F 15% 29.55 in 2 mi SSW 2.3 mph - -   Widespread Dust
7:00 AM 86.0 °F - 44.6 °F 23% 29.53 in 2.2 mi SSW 2.3 mph - N/A   Unknown
8:00 AM 87.8 °F - 39.2 °F 18% 29.56 in 2.2 mi East 4.6 mph - N/A   Unknown
9:00 AM 93.2 °F - 35.6 °F 13% 29.56 in 2.5 mi East 3.5 mph - N/A   Unknown
10:00 AM 97 °F - 30 °F 4% 29.58 in 3 mi SSE 3.5 mph - -   Widespread Dust
10:00 AM 96.8 °F - 30.2 °F 10% 29.56 in 2.8 mi SSE 3.5 mph - N/A   Unknown
11:00 AM 96.8 °F 94.4 °F 53.6 °F 23% 29.56 in 2.8 mi Variable 3.5 mph - N/A   Unknown
12:00 PM 98.6 °F 96.4 °F 53.6 °F 22% 29.53 in 2.8 mi WNW 12.7 mph - N/A   Unknown
1:00 PM 96 °F - 56 °F 17% 29.54 in 3 mi NW 15.0 mph - -   Widespread Dust
1:00 PM 95.0 °F 93.0 °F 55.4 °F 26% 29.53 in 2.8 mi NW 15.0 mph - N/A   Unknown
2:00 PM 93.2 °F 100.5 °F 71.6 °F 49% 29.50 in 3.1 mi NNW 15.0 mph - N/A   Unknown
3:00 PM 93.2 °F 97.7 °F 68.0 °F 44% 29.50 in 3.1 mi North 15.0 mph - N/A   Unknown
4:00 PM 95 °F - 57 °F 18% 29.49 in 3 mi North 16.1 mph - -   Widespread Dust
4:00 PM 95.0 °F 93.7 °F 57.2 °F 28% 29.47 in 3.1 mi North 16.1 mph - N/A   Unknown
5:00 PM 96.8 °F - 48.2 °F 19% 29.47 in 3.1 mi North 13.8 mph - N/A   Unknown
6:00 PM 96.8 °F - 41.0 °F 15% 29.47 in 3.1 mi NNE 11.5 mph - N/A   Unknown
7:00 PM 96 °F - 41 °F 8% 29.51 in 4 mi NNE 12.7 mph - -   Widespread Dust
7:00 PM 95.0 °F - 41.0 °F 15% 29.50 in 3.7 mi NNE 12.7 mph - N/A   Unknown
8:00 PM 95.0 °F - 39.2 °F 14% 29.50 in 4.3 mi NE 8.1 mph - N/A   Unknown
9:00 PM 95.0 °F - 41.0 °F 15% 29.53 in 5.0 mi NNE 5.8 mph - N/A   Unknown
10:00 PM 95 °F - 41 °F 8% 29.56 in 5 mi NNE 10.4 mph - -   Widespread Dust
10:00 PM 95.0 °F - 41.0 °F 15% 29.53 in 5.0 mi NNE 10.4 mph - N/A   Unknown
11:00 PM 93.2 °F - 51.8 °F 24% 29.53 in 5.0 mi ENE 6.9 mph - N/A   Unknown